Regional Weather Roundup
Issued by NWS

Home | Current Version | Previous Version | Text Only | Print | Product List | Glossary Off
Versions: 1 2 3 4 5 6 7 8 9 10 11 12 13 14 15 16 17 18 19 20 21 22 23 24 25 26 27 28 29 30 31 32 33 34 35 36 37 38 39 40 41 42 43 44 45 46 47 48 49 50

000
ASUS43 KOAX 231110
RWRNE

WEATHER ROUNDUP FOR NEBRASKA
NATIONAL WEATHER SERVICE OMAHA NE
600 AM CDT WED MAY 23 2018

NOTES: SATELLITE DATA IS BEING USED TO AUGMENT CLOUD COVER ABOVE
       12000 FEET.
       "FAIR" INDICATES FEW OR NO CLOUDS BELOW 12,000 FEET WITH NO
       SIGNIFICANT WEATHER AND/OR OBSTRUCTIONS TO VISIBILITY.


NEZ001>004-019>022-054>056-231200-
NEBRASKA PANHANDLE

CITY           SKY/WX    TMP DP  RH WIND       PRES   REMARKS
SCOTTSBLUFF    PTCLDY    52  52 100 CALM      29.97R
ALLIANCE       MOCLDY    53  53 100 W7        29.93R
CHADRON        CLOUDY    55  55 100 W6        29.92S
GORDON         FAIR      55  53  93 CALM      29.91R
KIMBALL        PTCLDY    50  49  95 SE6       30.01R
SIDNEY         MOCLDY    56  52  86 NW7       29.97R
$$

NEZ057>060-069>072-079>082-231200-
SOUTHWEST NEBRASKA

CITY           SKY/WX    TMP DP  RH WIND       PRES   REMARKS
NORTH PLATTE   PTCLDY    65  58  78 SE8       29.94R
IMPERIAL       MOCLDY    59  56  89 S5        29.94R
LEXINGTON      PTCLDY    67  60  79 S12       29.95S
MCCOOK         CLEAR     64  58  80 S8        29.93S
OGALLALA       MOCLDY    63  57  80 S7        29.91S
$$

NEZ005>010-023>029-035>040-094-231200-
NORTH CENTRAL NEBRASKA

CITY           SKY/WX    TMP DP  RH WIND       PRES   REMARKS
VALENTINE      PTCLDY    67  62  84 S9        29.89R
AINSWORTH      MOCLDY    69  62  77 S16       29.92R THUNDER
BROKEN BOW     MOCLDY    67  61  81 S8        29.95R
O`NEILL        MOCLDY    69  64  84 SE9       29.96R
ORD            CLOUDY    67  62  84 SE7       29.95R
THEDFORD       MOCLDY    65  59  82 SE10      29.92F
$$

NEZ041-046>049-061>064-073>077-083>087-231200-
SOUTH CENTRAL NEBRASKA

CITY           SKY/WX    TMP DP  RH WIND       PRES   REMARKS
GRAND ISLAND   PTCLDY    65  62  90 SE9       30.00R
AURORA         CLEAR     67  65  91 S10       30.00R
HASTINGS       CLEAR     67  63  87 S8        30.00R
HEBRON         CLOUDY    70  65  83 S7        30.01R
HOLDREGE       PTCLDY    66  61  85 S14       29.97S
KEARNEY        PTCLDY    67  61  81 S13       29.98R
YORK           CLEAR     66  66 100 S9        30.01R
$$

NEZ011>018-030>034-042>045-231200-
NORTHEAST NEBRASKA

CITY           SKY/WX    TMP DP  RH WIND       PRES   REMARKS
NORFOLK        CLEAR     66  63  90 SE9       29.99R
ALBION         CLOUDY    67  64  89 S8        29.99R
BLAIR          CLEAR     69  64  85 S8        30.04R
COLUMBUS       CLEAR     70  64  81 S12       30.01R
FREMONT        CLEAR     68  64  88 SE7       30.03R
TEKAMAH        CLEAR     65  63  93 SE12      30.02R
WAYNE          CLEAR     64  63  96 S3        30.00S
$$

NEZ050>053-065>068-078-088>093-231200-
SOUTHEAST NEBRASKA

CITY           SKY/WX    TMP DP  RH WIND       PRES   REMARKS
LINCOLN        CLEAR     67  63  87 S7        30.02R
OMAHA EPPLEY   PTCLDY    68  63  84 SE7       30.03R
BEATRICE       CLEAR     69  66  89 S8        30.02R
FALLS CITY     CLEAR     65  62  90 SE6       30.03R
NEBRASKA CITY  CLEAR     65  65 100 S6        30.04R
PLATTSMOUTH    CLEAR     67  64  87 SE10      30.04R
$$

NEZ044-045-051>053-067-231200-
OMAHA AREA

CITY           SKY/WX    TMP DP  RH WIND       PRES   REMARKS
OMAHA EPPLEY   PTCLDY    68  63  84 SE7       30.03R
BLAIR          CLEAR     69  64  85 S8        30.04R
FREMONT        CLEAR     68  64  88 SE7       30.03R
MILLARD        CLEAR     65  64  93 CALM      30.03R
OFFUTT AFB     CLEAR     67  64  90 SE3       30.03R
PLATTSMOUTH    CLEAR     67  64  87 SE10      30.04R
WAHOO          FAIR      63  61  91 E7        30.02R
$$




USA.gov is the U.S. government's official web portal to all federal, state and local government web resources and services.